Voltar ao catálogo

METEOR 2-11 DEB

AtivoPO
NORAD 60007·DEBRIS·🇷🇺 Russia

Lançado Jul 5, 1984 de Plesetsk Cosmodrome

Loading…

Próximas Passagens (próximas 24 horas)

TLE

EnvelhecendoSource: Space-Track

Época: Sep 5, 2026, 21:10 UTC

1 60007U 84072AC  26248.88207813  .00001417  00000-0  93129-3 0  9993
2 60007  82.5266 302.2480 0027367  73.7126 286.7050 14.01126732441839

Acompanhe METEOR 2-11 DEB em tempo real com AllMySat

Download on the App Store